Weather History for Callaghan Valley, BC

Change the Weather History Date:

Tuesday, January 28, 2014

  Actual Average Record
Temperature  
Mean Temperature 35 °F -  
Max Temperature 41 °F - - ()
Min Temperature 29 °F - - ()
Degree Days  
Heating Degree Days 30    
Moisture  
Dew Point 33 °F    
Average Humidity 93    
Maximum Humidity 98    
Minimum Humidity 81    
Precipitation  
Precipitation 0.02 in - - ()
Sea Level Pressure  
Sea Level Pressure 30.14 in    
Wind  
Wind Speed 0 mph ()    
Max Wind Speed 2 mph    
Max Gust Speed -    
T = Trace of Precipitation, MM = Missing Value Source: Averaged Metar Reports

Daily Weather History Graph

Daily Weather History Graph

Search for Another Location

Airport:

Trip Planner

Search our weather history database for the weather conditions in past years. The results will help you decide how hot, cold, wet, or windy it might be!

Date:

Astronomy

Jan. 28, 2014 Rise Set
Actual Time 7:51 AM PST 4:59 PM PST
Civil Twilight 7:16 AM PST 5:35 PM PST
Nautical Twilight 6:36 AM PST 6:14 PM PST
Astronomical Twilight 5:58 AM PST 6:52 PM PST
Moon 5:42 AM PST (1/28) 2:52 PM PST (1/28)
Length of Visible Light 10h 19m
Length of Day
9h 08m
Waning Crescent, 6% of the Moon is Illuminated
Jan 28
Waning Crescent
Jan 30
New
Feb 6
First Quarter
Feb 14
Full
Feb 22
Last Quarter

Hourly Weather History & Observations

Time (PST) Temp. Dew Point Humidity Pressure Visibility Wind Dir Wind Speed Gust Speed Precip Events Conditions
12:00 AM 32.4 °F 28.6 °F 86% 30.21 in - Calm Calm - N/A   Unknown
1:00 AM 32.5 °F 29.5 °F 88% 30.21 in - NW 1.2 mph - N/A   Unknown
2:00 AM 33.6 °F 31.6 °F 92% 30.20 in - Calm Calm - N/A   Unknown
3:00 AM 34.0 °F 32.5 °F 94% 30.20 in - Calm Calm - N/A   Unknown
4:00 AM 34 °F 32 °F 88% 30.19 in - Calm Calm - -  
5:00 AM 33.8 °F 32.4 °F 94% 30.19 in - East 1.2 mph - N/A   Unknown
6:00 AM 34.2 °F 33.3 °F 97% 30.19 in - Calm Calm - N/A   Unknown
7:00 AM 33.4 °F 32.9 °F 98% 30.19 in - Calm Calm - 0.00 in   Unknown
8:00 AM 33.3 °F 32.7 °F 98% 30.20 in - East 1.2 mph - 0.00 in   Unknown
9:00 AM 33.6 °F 33.1 °F 98% 30.19 in - Calm Calm - 0.00 in   Unknown
10:00 AM 35 °F 34 °F 96% 30.19 in - Calm Calm - -  
10:00 AM 35.2 °F 34.3 °F 97% 30.19 in - Calm Calm - 0.00 in   Unknown
11:00 AM 36.7 °F 34.7 °F 93% 30.18 in - Calm Calm - N/A   Unknown
12:00 PM 37.9 °F 34.5 °F 87% 30.16 in - SSW 2.3 mph - N/A   Unknown
1:00 PM 39.0 °F 34.9 °F 85% 30.14 in - SSW 1.2 mph - N/A   Unknown
2:00 PM 38.3 °F 35.2 °F 89% 30.14 in - SSW 1.2 mph - N/A   Unknown
3:00 PM 41.0 °F 35.4 °F 81% 30.12 in - Calm Calm - N/A   Unknown
4:00 PM 38 °F 35 °F 86% 30.12 in - Calm Calm - -  
4:00 PM 38.1 °F 35.2 °F 89% 30.12 in - Calm Calm - N/A   Unknown
5:00 PM 36.0 °F 34.5 °F 94% 30.12 in - Calm Calm - N/A   Unknown
6:00 PM 34.2 °F 33.3 °F 97% 30.09 in - SE 1.2 mph - N/A   Unknown
7:00 PM 33.8 °F 33.1 °F 97% 30.06 in - East 2.3 mph - N/A   Unknown
8:00 PM 33.6 °F 33.1 °F 98% 30.04 in - East 2.3 mph - N/A   Unknown
9:00 PM 33.8 °F 33.1 °F 97% 30.04 in - Calm Calm - N/A   Unknown
10:00 PM 33 °F 33 °F 98% 30.00 in - Calm Calm - -  
10:00 PM 33.4 °F 32.7 °F 97% 30.00 in - Calm Calm - N/A   Unknown
11:00 PM 32.9 °F 32.4 °F 98% 29.97 in - Calm Calm - N/A   Unknown